Torna al catalogo

ORBCOMM FM 20

AttivoComunicazioniLEO
NORAD 25416·PAYLOAD·🇺🇸 United States

Lanciato Aug 2, 1998 da Cape Canaveral Space Force Station

Loading…

Prossimi Passaggi (prossime 24 ore)

TLE

AggiornatoSource: Space-Track

Epoca: Sep 14, 2026, 11:41 UTC

1 25416U 98046D   26257.48746729  .00000480  00000-0  20335-3 0  9992
2 25416  44.9931 187.9529 0002227 346.3830  13.6957 14.38170346469648

Traccia ORBCOMM FM 20 in tempo reale con AllMySat

Download on the App Store